Miscellaneous Local Product
Issued by NWS Hastings, NE

Home | Current Version | Previous Version | Text Only | Print | Product List | Glossary Off
Versions: 1 2 3 4 5 6 7 8 9 10 11 12 13 14 15 16 17 18 19 20 21 22 23 24 25 26 27 28 29 30 31 32 33 34 35 36 37 38 39 40 41 42 43 44 45 46 47 48 49 50

000
AXUS43 KGID 270702
MISGRI

GID CWA HOURLY WEATHER ROUNDUP
NATIONAL WEATHER SERVICE HASTINGS NE
200 AM CDT FRI MAR 27 2015

NOTE: "FAIR" INDICATES FEW OR NO CLOUDS BELOW 12,000 FEET WITH NO
SIGNIFICANT WEATHER AND/OR OBSTRUCTIONS TO VISIBILITY.

...SOUTH CENTRAL NEBRASKA...

CITY           SKY/WX    TMP DP  RH WIND       PRES   REMARKS
GRAND ISLAND   CLEAR     27  22  81 N7        30.23F WCI  19
HASTINGS       CLEAR     27  24  89 N7        30.22S WCI  19
KEARNEY        CLOUDY    32  25  74 NE15      30.23S WCI  22
ORD            PTCLDY    24  21  88 NW5       30.22S WCI  18
YORK           CLEAR     28  28 100 N7        30.22S WCI  21
AURORA         CLEAR     29  28  94 N7        30.22S WCI  22
LEXINGTON      CLOUDY    34  27  77 NE10      30.22S WCI  26
HOLDREGE       CLOUDY    33  28  81 NE12      30.21S WCI  24
HEBRON         PTCLDY    31  28  88 N3        30.23S

...NEBRASKA PANHANDLE...

CITY           SKY/WX    TMP DP  RH WIND       PRES   REMARKS
CHADRON        CLOUDY    38  33  82 S6        30.17S WCI  33
ALLIANCE       CLOUDY    37  30  75 SE3       30.17S
SCOTTSBLUFF    CLOUDY    40  32  73 E7        30.15F
SIDNEY         CLOUDY    37  29  72 SE5       30.17S WCI  33

...WESTERN AND NORTH CENTRAL NEBRASKA...

CITY           SKY/WX    TMP DP  RH WIND       PRES   REMARKS
VALENTINE      CLOUDY    30  25  81 CALM      30.22S
AINSWORTH      CLOUDY    31  27  84 CALM      30.22S
ONEILL         PTCLDY    30  27  88 NE9       30.23S WCI  22
BROKEN BOW     CLOUDY    33  26  75 N3        30.22S
IMPERIAL         N/A     37  27  67 E6        30.20S WCI  32
NORTH PLATTE   CLOUDY    32  27  81 E10       30.21R WCI  24
MCCOOK         CLOUDY    35  28  75 E7        30.23S WCI  29

...EASTERN NEBRASKA...

CITY           SKY/WX    TMP DP  RH WIND       PRES   REMARKS
NORFOLK        PTCLDY    28  21  75 NE7       30.24R WCI  21
SO SIOUX CITY  CLEAR     26  18  71 N8        30.26R WCI  18
TEKAMAH        MOCLDY    29  20  69 N10       30.25S WCI  20
COLUMBUS       CLEAR     28  21  74 N8        30.25R WCI  20
ALBION         PTCLDY    30  26  83 N3        30.23R
OMAHA EPPLEY   MOCLDY    31  25  78 N10       30.23R WCI  22
OFFUTT AFB     PTCLDY    31  26  81 N9        30.22R WCI  23
MILLARD        PTCLDY    33  29  86 N5        30.23R WCI  28
LINCOLN        CLEAR     31  29  92 NW8       30.23S WCI  23
NEBRASKA CITY  PTCLDY    31  31 100 N8        30.20S FOG     WCI  24
BEATRICE       CLEAR     28  27  96 N7        30.22R WCI  21
FALLS CITY     CLEAR     32  30  92 NW5       30.19S WCI  27

...NORTHERN KANSAS...

CITY           SKY/WX    TMP DP  RH WIND       PRES   REMARKS
GOODLAND       CLOUDY    39  30  70 E7        30.18F WCI  34
HILL CITY      CLOUDY    36  30  79 NE10      30.23R WCI  28
NORTON         CLOUDY    34  25  69 NE8       30.22S WCI  27
PHILLIPSBURG   CLOUDY    37  30  75 NE9       30.25R WCI  31
SMITH CENTER   CLOUDY    34  28  80 NE13G21   30.23R WCI  25
BELOIT         CLOUDY    36  30  80 N15       30.21S WCI  26
HAYS           CLOUDY    37  27  65 N14       30.20F WCI  29
RUSSELL        CLOUDY    36  33  89 N16       30.18R WCI  26
CONCORDIA      CLOUDY    34  31  88 NE14      30.21S WCI  25
SALINA         CLOUDY    38  33  82 NE15G22   30.19R WCI  29
TOPEKA         CLOUDY    37  35  92 N10       30.19R WCI  30



USA.gov is the U.S. government's official web portal to all federal, state and local government web resources and services.